AFL3110 UTAA-URMM

Flight info

Callsign AFL3110
Flight time 2h 7m
Altitude 38000
Route MAM29D MAMED B450 MARAL N50 LASKA/K0832F380 B450 KZ R227 URILU URILU5B
Aircraft B738/M-SDE2E3FGHIRWXY/LB1

Departure

Time 2026-04-14 16:41
Airport Ashgabat International Airport (UTAA)

Arrival

Time 2026-04-14 18:48
Airport Mineralnye Vody Airport (URMM)
Time Latitude Longitude Altitude Speed Heading
2026-04-14 16:20 37.98415 58.36955 701 ft 0 kts 210°
2026-04-14 16:29 37.98436 58.36969 694 ft 4 kts 209°
2026-04-14 16:29 37.98459 58.36985 695 ft 3 kts 204°
2026-04-14 16:30 37.98472 58.36991 693 ft 2 kts 185°
2026-04-14 16:30 37.98484 58.36990 692 ft 2 kts 148°
2026-04-14 16:30 37.98492 58.36980 696 ft 2 kts 126°
2026-04-14 16:30 37.98498 58.36969 693 ft 2 kts 121°
2026-04-14 16:31 37.98501 58.36963 693 ft 0 kts 120°
2026-04-14 16:32 37.98500 58.36965 693 ft 0 kts 120°
2026-04-14 16:32 37.98499 58.36967 693 ft 0 kts 120°
2026-04-14 16:32 37.98498 58.36970 693 ft 0 kts 120°
2026-04-14 16:33 37.98496 58.36974 695 ft 1 kts 120°
2026-04-14 16:33 37.98494 58.36979 699 ft 1 kts 120°
2026-04-14 16:33 37.98491 58.36985 695 ft 1 kts 119°
2026-04-14 16:33 37.98487 58.36994 700 ft 2 kts 117°
2026-04-14 16:34 37.98471 58.37043 698 ft 9 kts 106°
2026-04-14 16:34 37.98445 58.37120 697 ft 10 kts 119°
2026-04-14 16:34 37.98413 58.37193 701 ft 9 kts 119°
2026-04-14 16:34 37.98381 58.37264 701 ft 9 kts 120°
2026-04-14 16:35 37.98371 58.37340 697 ft 9 kts 77°
2026-04-14 16:35 37.98387 58.37415 698 ft 9 kts 76°
2026-04-14 16:35 37.98397 58.37490 694 ft 8 kts 89°
2026-04-14 16:35 37.98381 58.37560 694 ft 8 kts 116°
2026-04-14 16:36 37.98353 58.37629 698 ft 9 kts 117°
2026-04-14 16:36 37.98322 58.37701 700 ft 9 kts 120°
2026-04-14 16:36 37.98290 58.37773 694 ft 9 kts 119°
2026-04-14 16:36 37.98258 58.37843 698 ft 9 kts 119°
2026-04-14 16:37 37.98236 58.37915 700 ft 9 kts 98°
2026-04-14 16:37 37.98249 58.37983 699 ft 0 kts 57°
2026-04-14 16:38 37.98252 58.37987 692 ft 2 kts 55°
2026-04-14 16:38 37.98278 58.38020 695 ft 10 kts 35°
2026-04-14 16:38 37.98366 58.38031 690 ft 15 kts 318°
2026-04-14 16:38 37.98407 58.37952 689 ft 0 kts 298°
2026-04-14 16:40 37.98411 58.37944 691 ft 8 kts 298°
2026-04-14 16:40 37.98526 58.37686 689 ft 72 kts 299°
2026-04-14 16:40 37.98912 58.36826 694 ft 150 kts 302°
2026-04-14 16:40 37.99483 58.35493 1116 ft 188 kts 299°
2026-04-14 16:41 38.00117 58.34024 2003 ft 196 kts 298°
2026-04-14 16:41 38.00784 58.32510 2837 ft 203 kts 297°
2026-04-14 16:41 38.01501 58.30902 3491 ft 214 kts 296°
2026-04-14 16:41 38.02245 58.29227 4263 ft 221 kts 296°
2026-04-14 16:42 38.03043 58.27460 4928 ft 240 kts 298°
2026-04-14 16:42 38.03950 58.25662 5852 ft 248 kts 300°
2026-04-14 16:42 38.04934 58.23884 7015 ft 247 kts 302°
2026-04-14 16:42 38.05991 58.22120 7889 ft 255 kts 304°
2026-04-14 16:43 38.07146 58.20375 8885 ft 260 kts 306°
2026-04-14 16:43 38.08392 58.18683 9678 ft 264 kts 309°
2026-04-14 16:43 38.09729 58.17066 9994 ft 268 kts 312°
2026-04-14 16:43 38.11156 58.15518 9996 ft 271 kts 315°
2026-04-14 16:44 38.12643 58.14043 10012 ft 271 kts 316°
2026-04-14 16:44 38.14146 58.12595 10022 ft 271 kts 317°
2026-04-14 16:44 38.15653 58.11151 10032 ft 271 kts 317°
2026-04-14 16:45 38.18676 58.08252 10028 ft 276 kts 316°
2026-04-14 16:45 38.20292 58.06684 10065 ft 308 kts 316°
2026-04-14 16:45 38.22032 58.04998 10068 ft 320 kts 317°
2026-04-14 16:45 38.23826 58.03271 10796 ft 325 kts 317°
2026-04-14 16:46 38.25623 58.01545 11847 ft 323 kts 316°
2026-04-14 16:46 38.27429 57.99806 12752 ft 328 kts 316°
2026-04-14 16:46 38.29241 57.98057 13583 ft 333 kts 316°
2026-04-14 16:46 38.31105 57.96255 14391 ft 338 kts 316°
2026-04-14 16:47 38.32984 57.94439 15272 ft 338 kts 315°
2026-04-14 16:47 38.34856 57.92629 16210 ft 338 kts 315°
2026-04-14 16:47 38.36732 57.90813 17056 ft 340 kts 315°
2026-04-14 16:47 38.38621 57.88982 17927 ft 341 kts 314°
2026-04-14 16:48 38.40513 57.87146 18712 ft 343 kts 314°
2026-04-14 16:48 38.42395 57.85317 19353 ft 347 kts 314°
2026-04-14 16:48 38.44325 57.83439 19987 ft 351 kts 314°
2026-04-14 16:48 38.46275 57.81542 20631 ft 354 kts 314°
2026-04-14 16:49 38.48244 57.79626 21268 ft 358 kts 314°
2026-04-14 16:49 38.50237 57.77685 21883 ft 362 kts 314°
2026-04-14 16:49 38.52250 57.75723 22486 ft 366 kts 314°
2026-04-14 16:49 38.54282 57.73742 23076 ft 370 kts 314°
2026-04-14 16:50 38.56338 57.71737 23496 ft 373 kts 314°
2026-04-14 16:50 38.58414 57.69711 23492 ft 373 kts 314°
2026-04-14 16:50 38.60481 57.67694 23506 ft 373 kts 313°
2026-04-14 16:50 38.62311 57.65433 23507 ft 362 kts 299°
2026-04-14 16:51 38.63669 57.62723 23829 ft 363 kts 295°
2026-04-14 16:51 38.64958 57.60006 24518 ft 360 kts 295°
2026-04-14 16:51 38.66251 57.57271 25140 ft 359 kts 294°
2026-04-14 16:51 38.67552 57.54519 25570 ft 364 kts 294°
2026-04-14 16:52 38.68871 57.51736 26001 ft 368 kts 295°
2026-04-14 16:52 38.70209 57.48922 26458 ft 371 kts 295°
2026-04-14 16:52 38.71558 57.46093 26917 ft 373 kts 295°
2026-04-14 16:52 38.72918 57.43244 27352 ft 376 kts 295°
2026-04-14 16:53 38.74287 57.40377 27773 ft 379 kts 295°
2026-04-14 16:53 38.75669 57.37482 28178 ft 383 kts 294°
2026-04-14 16:53 38.77064 57.34557 28554 ft 387 kts 294°
2026-04-14 16:53 38.78474 57.31601 28983 ft 389 kts 294°
2026-04-14 16:54 38.79888 57.28633 29381 ft 392 kts 294°
2026-04-14 16:54 38.81313 57.25640 29754 ft 395 kts 294°
2026-04-14 16:54 38.82748 57.22624 30108 ft 397 kts 294°
2026-04-14 16:54 38.84193 57.19582 30427 ft 400 kts 294°
2026-04-14 16:55 38.85626 57.16564 30737 ft 402 kts 294°
2026-04-14 16:55 38.87084 57.13493 31089 ft 403 kts 294°
2026-04-14 16:55 38.88538 57.10429 31601 ft 399 kts 294°
2026-04-14 16:55 38.89975 57.07402 32113 ft 396 kts 294°
2026-04-14 16:56 38.91407 57.04376 32478 ft 397 kts 294°
2026-04-14 16:56 38.92841 57.01339 32814 ft 398 kts 294°
2026-04-14 16:56 38.94272 56.98305 33213 ft 397 kts 294°
2026-04-14 16:56 38.95699 56.95278 33653 ft 395 kts 294°
2026-04-14 16:57 38.97122 56.92259 34057 ft 395 kts 294°
2026-04-14 16:57 38.98544 56.89236 34375 ft 395 kts 294°
2026-04-14 16:57 38.99965 56.86212 34705 ft 395 kts 294°
2026-04-14 16:57 39.01383 56.83195 35069 ft 393 kts 294°
2026-04-14 16:58 39.02780 56.80216 35308 ft 394 kts 294°
2026-04-14 16:58 39.04200 56.77185 35530 ft 396 kts 294°
2026-04-14 16:58 39.05624 56.74143 35831 ft 396 kts 294°
2026-04-14 16:58 39.07043 56.71112 36126 ft 396 kts 294°
2026-04-14 16:59 39.08465 56.68069 36383 ft 396 kts 294°
2026-04-14 16:59 39.09886 56.65025 36632 ft 397 kts 294°
2026-04-14 16:59 39.11311 56.61973 36938 ft 397 kts 294°
2026-04-14 16:59 39.12731 56.58926 37183 ft 398 kts 294°
2026-04-14 17:00 39.14158 56.55860 37355 ft 400 kts 294°
2026-04-14 17:00 39.15594 56.52770 37500 ft 403 kts 294°
2026-04-14 17:00 39.17013 56.49716 37754 ft 403 kts 294°
2026-04-14 17:00 39.18456 56.46612 38032 ft 403 kts 294°
2026-04-14 17:01 39.19895 56.43510 38147 ft 405 kts 294°
2026-04-14 17:01 39.21345 56.40379 38154 ft 408 kts 294°
2026-04-14 17:01 39.24254 56.34094 38149 ft 406 kts 294°
2026-04-14 17:02 39.27129 56.27878 38144 ft 402 kts 294°
2026-04-14 17:02 39.29979 56.21695 38142 ft 399 kts 294°
2026-04-14 17:03 39.32332 56.16579 38155 ft 398 kts 294°
2026-04-14 17:03 39.35158 56.10423 38156 ft 398 kts 294°
2026-04-14 17:04 39.37990 56.04242 38159 ft 400 kts 295°
2026-04-14 17:04 39.40826 55.98041 38163 ft 402 kts 295°
2026-04-14 17:05 39.43675 55.91799 38154 ft 404 kts 295°
2026-04-14 17:05 39.46540 55.85512 38162 ft 407 kts 295°
2026-04-14 17:06 39.49417 55.79189 38156 ft 409 kts 295°
2026-04-14 17:06 39.52331 55.72899 38156 ft 410 kts 295°
2026-04-14 17:07 39.55279 55.66560 38168 ft 411 kts 295°
2026-04-14 17:07 39.58222 55.60210 38157 ft 411 kts 295°
2026-04-14 17:08 39.61161 55.53843 38154 ft 411 kts 295°
2026-04-14 17:08 39.64096 55.47471 38155 ft 411 kts 295°
2026-04-14 17:09 39.67021 55.41108 38152 ft 410 kts 295°
2026-04-14 17:09 39.69915 55.34794 38156 ft 409 kts 295°
2026-04-14 17:10 39.72754 55.28414 38154 ft 408 kts 294°
2026-04-14 17:10 39.75569 55.22021 38152 ft 407 kts 294°
2026-04-14 17:11 39.78382 55.15641 38167 ft 407 kts 295°
2026-04-14 17:11 39.81199 55.09252 38152 ft 407 kts 295°
2026-04-14 17:12 39.84023 55.02855 38164 ft 408 kts 295°
2026-04-14 17:12 39.86914 54.96499 38153 ft 408 kts 295°
2026-04-14 17:13 39.89824 54.90138 38158 ft 408 kts 296°
2026-04-14 17:13 39.92722 54.83774 38156 ft 408 kts 295°
2026-04-14 17:14 39.95595 54.77440 38158 ft 409 kts 295°
2026-04-14 17:14 39.98482 54.71055 38170 ft 408 kts 295°
2026-04-14 17:15 40.01364 54.64667 38163 ft 409 kts 295°
2026-04-14 17:15 40.04241 54.58276 38163 ft 409 kts 295°
2026-04-14 17:16 40.07123 54.51863 38164 ft 409 kts 295°
2026-04-14 17:16 40.09997 54.45452 38177 ft 409 kts 295°
2026-04-14 17:17 40.12861 54.39051 38176 ft 410 kts 295°
2026-04-14 17:17 40.15740 54.32602 38171 ft 411 kts 295°
2026-04-14 17:18 40.18627 54.26124 38170 ft 412 kts 295°
2026-04-14 17:18 40.21514 54.19630 38176 ft 413 kts 296°
2026-04-14 17:19 40.24410 54.13104 38172 ft 414 kts 296°
2026-04-14 17:19 40.27284 54.06612 38168 ft 415 kts 295°
2026-04-14 17:20 40.30180 54.00059 38165 ft 415 kts 295°
2026-04-14 17:20 40.33073 53.93497 38177 ft 416 kts 296°
2026-04-14 17:21 40.35967 53.86919 38167 ft 416 kts 295°
2026-04-14 17:21 40.38857 53.80336 38160 ft 416 kts 295°
2026-04-14 17:22 40.41738 53.73761 38162 ft 416 kts 295°
2026-04-14 17:22 40.44614 53.67181 38160 ft 415 kts 296°
2026-04-14 17:23 40.47467 53.60640 38158 ft 415 kts 295°
2026-04-14 17:23 40.50334 53.54053 38158 ft 415 kts 295°
2026-04-14 17:24 40.53195 53.47466 38181 ft 415 kts 296°
2026-04-14 17:24 40.56051 53.40873 38164 ft 415 kts 296°
2026-04-14 17:25 40.58908 53.34269 38158 ft 414 kts 296°
2026-04-14 17:25 40.61754 53.27672 38161 ft 414 kts 295°
2026-04-14 17:26 40.64598 53.21066 38184 ft 414 kts 296°
2026-04-14 17:26 40.67422 53.14492 38169 ft 415 kts 296°
2026-04-14 17:27 40.70264 53.07862 38169 ft 416 kts 296°
2026-04-14 17:27 40.73111 53.01207 38159 ft 416 kts 296°
2026-04-14 17:28 40.75952 52.94550 38157 ft 417 kts 295°
2026-04-14 17:28 40.78794 52.87875 38161 ft 417 kts 295°
2026-04-14 17:29 40.81620 52.81225 38172 ft 418 kts 295°
2026-04-14 17:29 40.84461 52.74524 38178 ft 418 kts 295°
2026-04-14 17:30 40.87297 52.67819 38179 ft 418 kts 295°
2026-04-14 17:30 40.90131 52.61107 38170 ft 418 kts 295°
2026-04-14 17:31 40.92954 52.54390 38173 ft 418 kts 295°
2026-04-14 17:31 40.95773 52.47658 38178 ft 417 kts 295°
2026-04-14 17:32 40.98586 52.40922 38184 ft 418 kts 295°
2026-04-14 17:32 41.01395 52.34184 38178 ft 418 kts 295°
2026-04-14 17:33 41.04202 52.27434 38181 ft 418 kts 295°
2026-04-14 17:34 41.08392 52.17334 38184 ft 419 kts 295°
2026-04-14 17:34 41.11199 52.10546 38180 ft 420 kts 295°
2026-04-14 17:35 41.14007 52.03742 38190 ft 421 kts 295°
2026-04-14 17:35 41.16816 51.96920 38185 ft 421 kts 295°
2026-04-14 17:36 41.19623 51.90086 38186 ft 422 kts 295°
2026-04-14 17:36 41.22438 51.83219 38187 ft 423 kts 295°
2026-04-14 17:37 41.25252 51.76335 38189 ft 424 kts 295°
2026-04-14 17:37 41.28070 51.69429 38185 ft 425 kts 295°
2026-04-14 17:38 41.30890 51.62500 38197 ft 427 kts 295°
2026-04-14 17:38 41.33697 51.55588 38189 ft 428 kts 294°
2026-04-14 17:39 41.36592 51.48652 38189 ft 431 kts 299°
2026-04-14 17:39 41.40079 51.42121 38189 ft 433 kts 302°
2026-04-14 17:40 41.43673 51.35663 38193 ft 434 kts 302°
2026-04-14 17:40 41.47249 51.29151 38192 ft 435 kts 302°
2026-04-14 17:41 41.50796 51.22606 38182 ft 435 kts 302°
2026-04-14 17:41 41.54327 51.16052 38193 ft 435 kts 302°
2026-04-14 17:42 41.57861 51.09477 38193 ft 436 kts 302°
2026-04-14 17:42 41.61392 51.02893 38190 ft 436 kts 302°
2026-04-14 17:43 41.64925 50.96293 38196 ft 436 kts 302°
2026-04-14 17:43 41.68453 50.89689 38199 ft 436 kts 302°
2026-04-14 17:44 41.71979 50.83075 38190 ft 437 kts 302°
2026-04-14 17:44 41.75479 50.76495 38193 ft 437 kts 302°
2026-04-14 17:45 41.79000 50.69860 38208 ft 437 kts 302°
2026-04-14 17:45 41.82531 50.63192 38196 ft 438 kts 302°
2026-04-14 17:46 41.86057 50.56520 38197 ft 438 kts 302°
2026-04-14 17:46 41.89576 50.49844 38192 ft 438 kts 302°
2026-04-14 17:47 41.93072 50.43200 38197 ft 438 kts 302°
2026-04-14 17:47 41.96588 50.36501 38200 ft 438 kts 302°
2026-04-14 17:48 42.00099 50.29786 38194 ft 438 kts 302°
2026-04-14 17:48 42.03604 50.23062 38206 ft 439 kts 302°
2026-04-14 17:49 42.07082 50.16376 38206 ft 439 kts 302°
2026-04-14 17:49 42.10586 50.09625 38198 ft 439 kts 302°
2026-04-14 17:50 42.14085 50.02870 38201 ft 439 kts 302°
2026-04-14 17:50 42.17578 49.96111 38204 ft 440 kts 302°
2026-04-14 17:51 42.20488 49.90468 38202 ft 440 kts 302°
2026-04-14 17:51 42.23989 49.83666 38202 ft 441 kts 302°
2026-04-14 17:52 42.27463 49.76899 38218 ft 441 kts 302°
2026-04-14 17:52 42.30959 49.70076 38206 ft 442 kts 302°
2026-04-14 17:53 42.34460 49.63226 38201 ft 442 kts 302°
2026-04-14 17:53 42.37955 49.56375 38202 ft 443 kts 302°
2026-04-14 17:54 42.41497 49.49592 38205 ft 444 kts 303°
2026-04-14 17:54 42.45127 49.42824 38202 ft 444 kts 303°
2026-04-14 17:55 42.48754 49.36036 38204 ft 444 kts 303°
2026-04-14 17:55 42.52365 49.29232 38222 ft 445 kts 303°
2026-04-14 17:56 42.55973 49.22408 38207 ft 445 kts 303°
2026-04-14 17:56 42.59586 49.15559 38206 ft 446 kts 303°
2026-04-14 17:57 42.63191 49.08710 38206 ft 446 kts 303°
2026-04-14 17:57 42.66792 49.01852 38211 ft 446 kts 303°
2026-04-14 17:58 42.70370 48.95022 38205 ft 447 kts 303°
2026-04-14 17:58 42.73972 48.88133 38204 ft 447 kts 303°
2026-04-14 17:59 42.77575 48.81233 38205 ft 447 kts 303°
2026-04-14 17:59 42.81180 48.74334 38206 ft 448 kts 303°
2026-04-14 18:00 42.84788 48.67415 38205 ft 448 kts 302°
2026-04-14 18:00 42.90192 48.57014 38211 ft 448 kts 303°
2026-04-14 18:01 42.93772 48.50104 38205 ft 448 kts 303°
2026-04-14 18:01 42.97372 48.43139 38208 ft 449 kts 303°
2026-04-14 18:02 43.00964 48.36173 38209 ft 449 kts 303°
2026-04-14 18:02 43.04562 48.29179 38214 ft 449 kts 303°
2026-04-14 18:03 43.08134 48.22217 38216 ft 450 kts 303°
2026-04-14 18:03 43.11727 48.15202 38213 ft 450 kts 303°
2026-04-14 18:04 43.15317 48.08177 38207 ft 450 kts 303°
2026-04-14 18:04 43.18906 48.01135 38215 ft 451 kts 303°
2026-04-14 18:05 43.22491 47.94081 38203 ft 451 kts 302°
2026-04-14 18:05 43.26070 47.87023 38222 ft 450 kts 302°
2026-04-14 18:06 43.29649 47.79948 38210 ft 451 kts 303°
2026-04-14 18:06 43.33193 47.72923 38217 ft 450 kts 303°
2026-04-14 18:07 43.36759 47.65840 38218 ft 451 kts 303°
2026-04-14 18:07 43.40322 47.58748 38222 ft 451 kts 302°
2026-04-14 18:08 43.43881 47.51647 38224 ft 450 kts 302°
2026-04-14 18:08 43.47433 47.44544 38215 ft 451 kts 304°
2026-04-14 18:09 43.50984 47.37439 38226 ft 450 kts 303°
2026-04-14 18:09 43.54520 47.30322 38223 ft 450 kts 303°
2026-04-14 18:10 43.58056 47.23194 38212 ft 449 kts 303°
2026-04-14 18:10 43.61575 47.16084 38226 ft 448 kts 303°
2026-04-14 18:11 43.65085 47.08977 38223 ft 448 kts 303°
2026-04-14 18:11 43.68584 47.01876 38227 ft 447 kts 303°
2026-04-14 18:12 43.72058 46.94806 38213 ft 447 kts 303°
2026-04-14 18:12 43.75543 46.87698 38222 ft 446 kts 303°
2026-04-14 18:13 43.79018 46.80595 38221 ft 445 kts 303°
2026-04-14 18:13 43.82375 46.73386 38204 ft 445 kts 295°
2026-04-14 18:14 43.84308 46.65227 37605 ft 448 kts 278°
2026-04-14 18:14 43.84755 46.61024 37238 ft 444 kts 278°
2026-04-14 18:14 43.85182 46.56816 36839 ft 438 kts 278°
2026-04-14 18:15 43.85605 46.52664 36452 ft 432 kts 278°
2026-04-14 18:15 43.86032 46.48558 36078 ft 427 kts 278°
2026-04-14 18:15 43.86462 46.44503 35713 ft 423 kts 278°
2026-04-14 18:15 43.86894 46.40484 35357 ft 419 kts 278°
2026-04-14 18:16 43.87324 46.36503 35001 ft 416 kts 278°
2026-04-14 18:16 43.87752 46.32546 34636 ft 414 kts 278°
2026-04-14 18:16 43.88176 46.28614 34262 ft 412 kts 278°
2026-04-14 18:16 43.88598 46.24691 33852 ft 410 kts 278°
2026-04-14 18:17 43.89016 46.20785 33454 ft 410 kts 277°
2026-04-14 18:17 43.89435 46.16856 33092 ft 413 kts 277°
2026-04-14 18:17 43.89850 46.12942 32745 ft 416 kts 278°
2026-04-14 18:17 43.90269 46.08980 32374 ft 413 kts 278°
2026-04-14 18:18 43.90685 46.05041 32002 ft 411 kts 278°
2026-04-14 18:18 43.91097 46.01128 31642 ft 409 kts 277°
2026-04-14 18:18 43.91505 45.97236 31286 ft 406 kts 277°
2026-04-14 18:18 43.91909 45.93370 30931 ft 404 kts 277°
2026-04-14 18:19 43.92309 45.89531 30585 ft 402 kts 277°
2026-04-14 18:19 43.92730 45.85704 30223 ft 400 kts 277°
2026-04-14 18:19 43.93169 45.81906 29801 ft 397 kts 278°
2026-04-14 18:19 43.93610 45.78142 29461 ft 393 kts 278°
2026-04-14 18:20 43.94046 45.74413 29109 ft 390 kts 278°
2026-04-14 18:20 43.94475 45.70712 28768 ft 387 kts 278°
2026-04-14 18:20 43.94898 45.67037 28427 ft 384 kts 278°
2026-04-14 18:20 43.95316 45.63384 28083 ft 381 kts 277°
2026-04-14 18:21 43.95722 45.59810 27746 ft 379 kts 277°
2026-04-14 18:21 43.96131 45.56204 27411 ft 377 kts 278°
2026-04-14 18:21 43.96535 45.52626 27073 ft 374 kts 278°
2026-04-14 18:21 43.96936 45.49065 26752 ft 372 kts 278°
2026-04-14 18:22 43.97331 45.45538 26435 ft 369 kts 278°
2026-04-14 18:22 43.97723 45.42039 26103 ft 364 kts 278°
2026-04-14 18:22 43.98109 45.38580 25794 ft 360 kts 278°
2026-04-14 18:22 43.98491 45.35156 25471 ft 358 kts 278°
2026-04-14 18:23 43.98868 45.31756 25162 ft 355 kts 278°
2026-04-14 18:23 43.99244 45.28369 24855 ft 353 kts 278°
2026-04-14 18:23 43.99615 45.25012 24542 ft 351 kts 278°
2026-04-14 18:23 43.99983 45.21668 24241 ft 349 kts 278°
2026-04-14 18:24 44.00343 45.18347 23929 ft 347 kts 278°
2026-04-14 18:24 44.00691 45.15079 23600 ft 345 kts 278°
2026-04-14 18:24 44.01040 45.11790 23252 ft 343 kts 277°
2026-04-14 18:24 44.01386 45.08520 22947 ft 340 kts 277°
2026-04-14 18:25 44.01729 45.05278 22637 ft 338 kts 277°
2026-04-14 18:25 44.02067 45.02069 22351 ft 335 kts 277°
2026-04-14 18:25 44.02403 44.98877 22044 ft 333 kts 277°
2026-04-14 18:25 44.02734 44.95710 21756 ft 330 kts 277°
2026-04-14 18:26 44.03064 44.92560 21468 ft 328 kts 277°
2026-04-14 18:26 44.03391 44.89425 21175 ft 326 kts 278°
2026-04-14 18:26 44.03715 44.86313 20893 ft 325 kts 277°
2026-04-14 18:26 44.04036 44.83217 20609 ft 323 kts 278°
2026-04-14 18:27 44.04354 44.80139 20324 ft 321 kts 278°
2026-04-14 18:27 44.04671 44.77068 20042 ft 320 kts 278°
2026-04-14 18:27 44.04986 44.74015 19759 ft 319 kts 278°
2026-04-14 18:27 44.05294 44.71013 19485 ft 316 kts 278°
2026-04-14 18:28 44.05602 44.68005 19205 ft 313 kts 278°
2026-04-14 18:28 44.05907 44.65024 18935 ft 309 kts 278°
2026-04-14 18:28 44.06207 44.62078 18665 ft 307 kts 278°
2026-04-14 18:28 44.06505 44.59148 18381 ft 304 kts 278°
2026-04-14 18:29 44.06818 44.56250 18084 ft 301 kts 279°
2026-04-14 18:29 44.07162 44.53384 17810 ft 299 kts 280°
2026-04-14 18:29 44.07510 44.50546 17539 ft 296 kts 280°
2026-04-14 18:29 44.07854 44.47728 17292 ft 295 kts 280°
2026-04-14 18:30 44.08196 44.44910 17020 ft 295 kts 280°
2026-04-14 18:30 44.08534 44.42101 16766 ft 295 kts 280°
2026-04-14 18:30 44.08869 44.39307 16513 ft 297 kts 279°
2026-04-14 18:30 44.09208 44.36465 16251 ft 297 kts 279°
2026-04-14 18:31 44.09546 44.33630 15986 ft 297 kts 279°
2026-04-14 18:31 44.09881 44.30801 15725 ft 296 kts 279°
2026-04-14 18:31 44.10215 44.27977 15467 ft 295 kts 279°
2026-04-14 18:31 44.10548 44.25161 15208 ft 295 kts 279°
2026-04-14 18:32 44.10878 44.22360 14949 ft 292 kts 279°
2026-04-14 18:32 44.11203 44.19591 14687 ft 286 kts 279°
2026-04-14 18:32 44.11521 44.16879 14437 ft 281 kts 279°
2026-04-14 18:32 44.11833 44.14211 14194 ft 277 kts 279°
2026-04-14 18:33 44.12142 44.11565 13952 ft 276 kts 279°
2026-04-14 18:33 44.12446 44.08961 13701 ft 274 kts 279°
2026-04-14 18:33 44.12749 44.06353 13430 ft 272 kts 279°
2026-04-14 18:34 44.13643 43.98637 12711 ft 267 kts 280°
2026-04-14 18:34 44.13936 43.96097 12480 ft 265 kts 280°
2026-04-14 18:34 44.14229 43.93560 12248 ft 264 kts 280°
2026-04-14 18:35 44.14519 43.91036 12024 ft 264 kts 280°
2026-04-14 18:35 44.14807 43.88521 11798 ft 263 kts 280°
2026-04-14 18:35 44.15095 43.86004 11564 ft 263 kts 280°
2026-04-14 18:35 44.15382 43.83490 11333 ft 262 kts 280°
2026-04-14 18:36 44.15669 43.80982 11104 ft 262 kts 279°
2026-04-14 18:36 44.15950 43.78516 10877 ft 261 kts 279°
2026-04-14 18:36 44.16237 43.75989 10647 ft 260 kts 279°
2026-04-14 18:36 44.16514 43.73536 10432 ft 260 kts 279°
2026-04-14 18:37 44.16759 43.71062 10183 ft 257 kts 273°
2026-04-14 18:37 44.16555 43.68593 9838 ft 257 kts 262°
2026-04-14 18:37 44.16217 43.66152 9505 ft 255 kts 262°
2026-04-14 18:37 44.15887 43.63788 9457 ft 240 kts 262°
2026-04-14 18:38 44.15583 43.61591 9341 ft 223 kts 262°
2026-04-14 18:38 44.15302 43.59534 9223 ft 209 kts 262°
2026-04-14 18:38 44.15041 43.57609 9111 ft 196 kts 263°
2026-04-14 18:38 44.14795 43.55774 8861 ft 191 kts 263°
2026-04-14 18:39 44.14553 43.53962 8525 ft 190 kts 263°
2026-04-14 18:39 44.14394 43.52765 8309 ft 189 kts 263°
2026-04-14 18:39 44.14155 43.50969 8002 ft 187 kts 263°
2026-04-14 18:39 44.13921 43.49214 7775 ft 181 kts 263°
2026-04-14 18:40 44.13693 43.47505 7470 ft 178 kts 263°
2026-04-14 18:40 44.13394 43.45264 7038 ft 177 kts 263°
2026-04-14 18:40 44.13172 43.43591 6769 ft 173 kts 263°
2026-04-14 18:40 44.13027 43.42515 6717 ft 163 kts 263°
2026-04-14 18:41 44.12823 43.40992 6436 ft 159 kts 263°
2026-04-14 18:41 44.12620 43.39478 6082 ft 159 kts 264°
2026-04-14 18:41 44.12419 43.37976 5773 ft 157 kts 264°
2026-04-14 18:41 44.12219 43.36483 5453 ft 156 kts 264°
2026-04-14 18:42 44.12022 43.35024 5247 ft 147 kts 264°
2026-04-14 18:42 44.11857 43.33650 4894 ft 141 kts 273°
2026-04-14 18:42 44.11989 43.32348 4661 ft 137 kts 286°
2026-04-14 18:42 44.12427 43.31165 4571 ft 141 kts 299°
2026-04-14 18:43 44.12910 43.30023 4386 ft 134 kts 299°
2026-04-14 18:43 44.13379 43.28941 4231 ft 128 kts 300°
2026-04-14 18:43 44.13847 43.27882 4066 ft 129 kts 299°
2026-04-14 18:43 44.14323 43.26818 3893 ft 129 kts 299°
2026-04-14 18:44 44.14797 43.25762 3703 ft 128 kts 299°
2026-04-14 18:44 44.15267 43.24718 3539 ft 127 kts 299°
2026-04-14 18:44 44.15736 43.23677 3364 ft 127 kts 300°
2026-04-14 18:44 44.16208 43.22631 3194 ft 128 kts 299°
2026-04-14 18:45 44.16680 43.21584 3013 ft 127 kts 299°
2026-04-14 18:45 44.17151 43.20540 2846 ft 127 kts 298°
2026-04-14 18:45 44.17625 43.19488 2668 ft 129 kts 298°
2026-04-14 18:45 44.18107 43.18420 2486 ft 132 kts 299°
2026-04-14 18:46 44.18595 43.17338 2304 ft 131 kts 299°
2026-04-14 18:46 44.19076 43.16269 2088 ft 133 kts 298°
2026-04-14 18:46 44.19565 43.15141 1850 ft 140 kts 299°
2026-04-14 18:46 44.20086 43.13986 1668 ft 140 kts 299°
2026-04-14 18:47 44.20614 43.12834 1505 ft 141 kts 300°
2026-04-14 18:47 44.21153 43.11670 1312 ft 145 kts 299°
2026-04-14 18:47 44.21692 43.10473 1106 ft 146 kts 300°
2026-04-14 18:47 44.22205 43.09318 1053 ft 121 kts 303°
2026-04-14 18:48 44.22548 43.08592 1053 ft 58 kts 304°
2026-04-14 18:48 44.22653 43.08379 1051 ft 0 kts 306°
2026-04-14 18:48 44.22658 43.08370 1052 ft 0 kts 306°
2026-04-14 18:48 44.22667 43.08356 1050 ft 6 kts 311°
2026-04-14 18:49 44.22663 43.08335 1050 ft 2 kts 196°
2026-04-14 18:49 44.22650 43.08353 1052 ft 3 kts 117°
2026-04-14 18:49 44.22634 43.08396 1052 ft 8 kts 120°
2026-04-14 18:49 44.22592 43.08493 1052 ft 14 kts 121°
2026-04-14 18:50 44.22538 43.08615 1053 ft 15 kts 122°
2026-04-14 18:50 44.22479 43.08729 1054 ft 14 kts 136°
2026-04-14 18:50 44.22398 43.08814 1051 ft 16 kts 150°
2026-04-14 18:50 44.22303 43.08885 1051 ft 15 kts 153°
2026-04-14 18:51 44.22210 43.08952 1052 ft 15 kts 153°
2026-04-14 18:51 44.22122 43.09016 1052 ft 14 kts 152°
2026-04-14 18:51 44.22038 43.09079 1051 ft 13 kts 151°
2026-04-14 18:51 44.21959 43.09131 1050 ft 12 kts 172°
2026-04-14 18:52 44.21886 43.09084 1050 ft 12 kts 211°
2026-04-14 18:52 44.21814 43.09037 1050 ft 11 kts 207°
2026-04-14 18:52 44.21760 43.08990 1050 ft 4 kts 212°
2026-04-14 18:52 44.21753 43.08984 1050 ft 0 kts 212°